Temp
8 8 8 8 8 8 8 8 8 8 8 8 8 8 8 8 8 8 8 8 8 8 8 8 8 8 8 8 8 8 7 8 11 9 10 16 21 21 21 21 21 21 20 20 20 20 20 20 20 20 21 22 21 22 22 22 23 23 23 22 21 22 23 24 25 25 25 26 27 26 27 26 25 25 25 25 24 22 21 20 20 21 21 21 21 20 19 18
8 8 8 8 8 8 8 8 8 8 7 8 8 8 8 8 8 8 8 8 8 8 8 8 8 8 8 8 8 7 8 8 9 9 13 20 21 21 21 21 21 21 20 20 21 20 20 21 20 20 22 22 21 22 22 23 24 23 22 22 22 23 24 25 26 26 26 26 27 26 27 27 25 25 25 24 22 22 21 20 20 20 20 20 19 19 18 18
8 8 8 8 8 8 8 8 8 8 7 8 8 8 8 8 8 8 8 8 8 8 8 8 8 8 8 8 8 8 8 8 10 13 19 22 21 22 22 21 21 21 20 20 21 21 20 21 21 21 22 22 22 22 23 23 24 23 23 22 23 24 24 25 25 26 26 26 27 27 27 27 26 26 25 24 22 22 21 21 21 20 20 19 19 19 18 18
8 8 8 8 8 8 8 8 8 8 7 8 7 7 8 8 8 8 8 7 7 8 8 8 8 7 8 7 8 8 7 10 15 19 21 22 23 23 22 22 21 20 20 20 21 21 21 21 21 22 22 22 22 22 23 24 24 23 23 23 24 25 25 26 26 26 26 26 27 27 27 27 27 26 24 23 23 21 21 22 21 20 20 19 19 19 19 18
8 8 8 8 8 8 8 8 8 8 8 7 7 7 7 8 8 8 7 7 7 7 8 8 7 7 7 7 8 7 8 15 20 21 21 22 22 23 22 22 21 21 20 20 21 21 21 21 21 22 22 22 22 22 23 24 24 24 23 24 25 25 25 26 26 26 26 27 27 26 28 28 27 25 24 24 24 22 21 22 21 20 20 19 19 19 19 19
7 8 8 8 8 8 8 8 8 8 8 8 8 7 7 8 8 7 7 7 7 7 7 8 7 7 7 7 8 7 11 18 20 20 21 21 21 23 23 22 21 21 20 20 21 21 21 21 21 22 22 22 22 22 23 23 24 24 24 25 25 25 25 26 27 27 26 27 27 27 28 27 26 24 24 25 24 23 22 21 21 21 20 20 20 20 19 18
7 7 8 8 8 8 8 8 8 8 8 8 8 7 7 7 7 7 7 7 7 7 7 7 7 7 7 7 8 8 10 16 19 21 21 21 21 22 23 22 21 20 20 19 20 21 21 21 21 22 22 22 22 22 23 23 24 23 24 25 25 25 25 26 26 26 26 26 27 27 27 26 25 25 24 24 23 23 22 22 22 21 21 20 20 20 19 18
7 7 7 7 8 8 8 8 8 8 8 7 7 7 7 7 7 7 7 7 7 7 7 7 7 7 7 7 8 9 10 14 20 21 20 21 21 22 22 22 21 20 19 19 20 20 21 21 21 22 22 22 22 22 23 23 23 23 24 25 25 25 26 26 26 26 26 25 26 26 26 25 24 24 23 23 23 23 22 22 22 21 21 20 20 19 18 18
7 7 7 7 8 8 8 8 8 8 8 7 7 7 7 7 7 7 7 7 7 7 7 7 7 7 7 7 7 10 13 17 19 19 20 21 21 22 22 21 20 20 19 20 20 20 21 21 21 22 22 22 22 23 23 23 23 24 24 25 25 25 26 26 26 27 26 25 25 25 24 23 24 23 22 21 22 23 22 21 21 20 20 20 19 19 18 18
7 7 7 7 7 8 8 8 8 8 7 7 8 7 7 7 7 7 7 7 7 7 7 7 7 7 7 7 8 12 16 18 18 18 19 20 20 21 21 21 20 19 19 19 19 20 21 21 21 22 22 22 23 23 23 23 24 24 25 25 25 25 25 26 27 27 26 26 26 24 23 23 25 24 21 19 20 22 21 20 20 20 19 19 18 18 18 18
6 7 7 7 7 7 7 7 7 7 7 8 8 7 7 7 7 7 7 7 7 7 7 7 7 7 7 7 8 13 17 18 18 18 18 19 19 19 20 21 20 19 19 19 19 20 21 20 21 22 22 23 23 23 23 24 24 25 24 25 25 25 25 26 27 27 27 27 25 24 24 24 25 23 22 19 19 20 21 20 20 19 19 18 18 18 18 18
6 6 7 7 7 7 7 7 7 7 7 7 7 7 7 7 7 7 7 7 7 7 7 7 7 7 7 6 7 13 18 18 18 17 17 18 18 19 20 20 21 20 20 19 19 20 20 21 22 22 22 22 22 23 23 24 24 24 24 24 25 25 25 26 27 27 27 27 25 25 25 24 22 21 20 19 18 19 20 20 19 19 19 18 18 18 18 18
6 6 7 7 7 7 7 7 7 7 7 7 7 7 7 7 7 7 7 7 7 7 7 7 7 6 6 7 9 14 18 18 17 17 18 18 18 19 19 19 20 21 21 20 20 20 20 21 22 22 22 22 22 23 23 23 24 24 24 24 24 24 26 27 26 26 27 27 26 27 24 22 20 19 19 19 19 19 20 19 19 19 19 18 18 18 18 18
6 6 6 6 7 7 7 7 7 7 7 7 7 7 7 7 7 6 6 6 7 6 7 7 7 7 6 8 12 15 17 17 16 17 18 19 18 19 19 19 19 19 20 21 21 21 20 20 21 21 21 22 22 22 22 23 23 24 24 24 23 23 24 26 25 26 27 26 27 28 23 21 20 19 19 19 19 20 20 19 19 19 19 18 18 18 18 18
6 6 6 6 6 7 7 7 7 7 7 7 7 7 7 7 7 6 6 6 6 6 7 6 6 7 6 7 13 16 16 16 16 18 19 19 19 19 20 20 20 19 19 20 20 21 20 20 20 20 21 22 22 22 22 22 23 23 23 22 22 22 24 26 26 27 28 26 27 28 23 20 20 19 20 19 18 20 20 20 20 19 19 19 18 18 18 18
5 5 6 6 6 6 7 7 7 7 7 7 7 7 7 7 7 6 6 6 6 6 6 6 6 6 7 10 14 16 16 16 18 19 20 19 19 19 20 20 19 19 19 19 20 20 21 21 21 21 22 22 22 21 21 21 22 22 22 21 22 22 23 25 26 27 27 27 27 26 22 20 20 19 19 19 18 19 20 20 19 19 19 19 19 18 18 18
5 5 6 6 6 6 6 7 7 7 7 7 7 7 7 7 6 6 6 6 6 7 6 6 7 6 8 12 14 16 16 17 18 19 20 20 20 20 20 19 19 18 18 19 20 20 21 21 21 21 21 21 21 21 21 20 20 21 21 21 22 22 22 23 25 25 25 27 27 24 23 22 20 18 19 20 20 20 20 20 19 19 19 19 18 18 18 18
5 5 5 6 6 6 6 7 7 7 7 7 6 7 7 7 7 6 6 7 7 6 6 6 6 8 11 13 14 16 17 17 18 18 19 20 20 20 20 20 19 18 18 19 20 20 20 21 21 21 20 20 21 21 20 20 20 21 21 21 21 22 22 23 25 25 25 26 26 24 23 21 20 19 19 20 20 20 20 20 19 19 19 19 19 18 18 18
5 5 5 6 6 6 6 6 7 7 7 7 6 7 7 7 7 6 6 6 6 7 8 7 7 11 14 14 14 15 16 17 18 18 19 20 20 19 19 20 19 19 18 18 19 20 20 20 20 20 19 20 20 20 20 20 21 22 22 22 22 22 22 24 25 24 24 24 22 23 22 20 20 19 17 17 19 20 20 20 20 19 19 19 18 18 18 18
5 5 5 5 6 6 6 6 6 7 7 6 6 6 7 7 7 6 6 6 6 7 9 8 8 11 13 13 13 14 16 17 17 18 19 20 20 19 19 20 19 19 18 18 19 19 20 19 19 19 19 19 20 20 21 21 21 22 22 22 22 22 22 24 24 23 23 23 20 20 20 19 20 18 17 17 17 19 20 19 19 19 18 18 18 17 17 17
5 5 5 5 5 5 6 6 6 7 6 6 6 6 6 7 7 7 7 6 7 7 7 8 8 9 11 12 12 13 15 16 16 17 18 20 20 19 19 19 19 19 18 19 19 19 19 18 18 19 19 20 21 21 21 21 21 22 22 22 21 21 22 24 24 22 23 23 19 19 20 20 19 18 17 17 16 18 19 18 18 18 17 17 17 17 16 16
5 5 5 5 5 5 6 6 6 6 6 6 6 5 6 7 8 8 7 7 8 8 7 8 8 9 10 11 12 13 14 14 16 17 18 19 19 19 19 19 19 18 18 19 19 19 18 18 18 19 20 21 21 21 20 21 21 21 21 21 21 21 22 23 23 22 22 21 19 19 20 19 18 17 17 17 16 17 17 17 17 17 17 17 16 16 16 16
5 5 5 5 5 5 5 6 6 6 6 5 6 6 6 7 8 8 8 8 8 9 9 9 9 9 10 11 12 13 13 13 15 17 18 19 19 19 19 18 19 19 18 18 18 18 17 18 19 19 19 21 21 20 20 21 21 21 21 21 21 22 22 22 21 20 20 20 19 20 19 18 17 17 17 17 16 16 16 16 17 17 17 16 16 16 16 16
5 5 5 5 5 5 5 6 6 6 5 5 6 6 6 7 8 7 7 7 8 9 10 10 10 10 10 12 13 13 13 14 15 16 18 19 19 19 19 19 19 19 18 18 18 18 18 19 20 19 19 20 21 20 20 21 20 20 21 21 21 22 22 21 20 19 20 20 20 20 19 19 18 17 17 17 16 16 16 16 16 16 16 16 16 16 15 15
5 5 5 5 5 5 5 5 6 5 5 5 6 6 7 7 7 7 7 7 8 10 11 11 11 12 13 13 14 14 13 14 15 16 18 19 19 19 19 19 19 18 18 18 18 18 19 20 20 20 19 20 21 20 20 21 20 20 21 21 22 23 22 20 19 20 19 19 20 20 20 19 18 17 17 17 16 16 16 16 16 16 16 16 15 15 15 15
5 5 5 5 5 5 5 5 5 5 5 6 6 7 7 7 7 7 6 7 9 11 11 12 12 13 14 14 14 15 14 15 16 16 17 18 19 20 19 19 20 19 18 19 18 18 19 20 20 20 20 20 20 20 20 21 20 20 21 21 22 23 22 20 19 20 19 19 21 20 20 19 18 17 17 17 17 17 16 16 16 16 16 15 15 15 15 14
5 5 5 5 5 5 5 5 5 6 6 6 6 6 7 7 7 7 7 9 11 12 12 12 13 15 15 14 14 15 15 16 17 17 17 18 19 20 19 18 19 19 19 19 18 19 20 20 19 20 20 20 20 20 20 21 21 21 21 21 22 23 22 20 20 20 19 20 20 20 20 20 19 19 18 17 17 17 16 16 16 16 16 15 15 15 15 14
5 5 5 5 5 5 5 5 5 6 6 6 7 6 6 7 7 7 8 10 12 13 13 12 14 15 15 15 15 15 16 17 17 17 18 18 19 20 19 18 19 19 20 20 18 19 20 20 19 20 20 19 20 20 21 21 21 22 22 22 23 23 23 21 21 21 20 20 20 19 20 20 19 19 18 17 17 17 17 17 16 16 15 15 15 15 15 14
5 5 5 5 5 5 6 5 5 6 6 6 6 7 6 6 7 7 8 11 13 14 14 14 14 15 14 14 15 16 17 17 18 18 18 18 19 20 19 19 19 20 20 20 19 20 21 20 20 20 20 20 20 21 21 21 22 22 23 24 24 23 23 22 21 21 20 20 20 19 20 20 19 18 18 17 18 18 17 17 16 16 15 15 15 15 15 14
5 5 5 5 5 5 5 5 6 6 6 6 6 7 7 7 8 8 9 12 13 14 15 14 14 14 14 14 14 15 16 17 18 18 18 18 19 20 20 20 20 20 20 19 20 20 21 21 21 21 20 21 21 21 21 22 22 22 23 24 23 23 22 22 21 20 20 19 20 20 20 20 19 18 18 18 19 19 17 16 16 15 15 15 15 15 14 14
5 5 5 5 5 5 5 5 6 6 6 6 6 7 7 8 8 9 10 13 14 14 14 14 14 14 13 14 14 15 15 16 18 18 18 18 18 19 20 20 19 19 19 19 19 20 21 21 21 21 22 22 22 21 21 21 22 22 23 23 22 21 21 21 20 20 20 19 20 20 20 20 20 19 19 19 18 19 18 16 16 15 15 15 15 14 14 14
5 5 5 5 5 5 5 6 6 6 6 6 6 7 8 8 8 9 11 13 13 13 14 14 14 14 14 15 15 15 15 16 17 18 18 17 17 18 18 18 18 18 17 17 18 19 20 20 21 22 23 22 22 21 20 21 21 22 22 22 21 20 20 20 20 20 20 20 20 20 20 20 20 18 17 18 18 18 18 17 16 15 15 14 14 14 14 14
5 5 5 5 6 6 6 6 6 6 6 5 5 8 9 8 9 9 11 12 12 13 15 15 15 14 14 15 15 15 16 16 17 18 18 18 17 17 18 19 19 18 17 17 18 18 19 20 21 22 22 22 22 20 20 20 20 20 21 21 20 20 20 20 19 19 20 20 19 19 20 20 19 16 15 17 18 17 17 16 15 15 15 14 14 14 14 14
5 6 6 6 6 6 7 6 6 5 5 5 6 9 9 8 9 11 11 11 13 14 14 15 15 15 15 15 16 15 16 16 17 18 18 18 17 17 18 18 18 19 19 18 18 18 18 18 20 21 21 22 22 21 21 21 20 20 21 21 20 20 20 20 20 20 20 20 19 19 20 19 19 17 14 15 16 16 16 15 15 15 14 14 14 14 14 14
6 6 6 7 7 7 7 7 6 6 5 5 8 9 8 8 9 10 11 12 13 13 13 14 15 14 14 15 16 16 16 16 17 18 17 17 17 17 17 17 18 19 19 18 17 18 18 18 20 21 22 22 22 22 23 22 21 20 21 22 21 21 21 20 20 20 20 20 19 18 17 16 16 16 14 15 15 15 15 15 14 14 14 14 13 13 13 13
6 6 7 7 7 7 7 7 7 6 5 6 8 8 8 9 9 10 11 12 12 12 12 14 15 14 14 15 16 16 17 17 17 17 17 17 17 17 18 18 18 19 19 18 18 18 18 19 21 21 22 23 23 23 23 23 22 20 20 21 21 22 23 21 19 18 19 20 19 16 16 15 15 15 15 15 15 15 15 15 14 14 13 13 13 13 13 13
6 6 6 7 7 7 7 7 7 6 5 6 8 8 8 9 9 10 11 12 12 12 12 13 15 15 14 14 15 16 17 17 17 17 17 17 18 18 18 19 19 19 20 20 19 19 19 20 21 21 21 22 23 23 23 23 23 21 20 21 21 21 22 21 20 19 19 20 18 15 16 16 16 16 15 14 15 14 14 14 14 13 13 13 13 13 13 13
6 5 6 7 7 7 7 7 8 6 6 7 9 9 9 9 9 11 11 12 12 13 13 13 14 15 15 14 15 16 16 16 16 17 17 17 18 18 18 19 19 20 20 20 20 19 19 20 21 22 22 23 23 22 22 22 23 23 22 23 22 21 21 21 20 20 20 19 16 16 16 16 16 16 15 14 14 14 14 14 13 13 13 13 12 13 13 13
5 5 6 7 7 8 8 8 7 6 7 8 8 8 8 8 9 11 11 12 12 13 13 13 14 15 15 15 15 16 16 16 16 17 17 17 18 18 19 19 20 20 20 20 20 20 20 20 21 21 22 23 23 22 21 21 22 23 23 22 22 21 21 21 20 20 20 18 16 17 17 16 17 16 15 15 14 14 14 13 13 13 13 13 13 13 13 13
5 6 6 7 7 8 8 8 7 7 8 8 7 8 8 8 9 10 11 12 12 13 13 13 13 14 15 15 16 16 16 16 16 17 17 17 18 18 19 20 20 19 20 20 20 20 20 19 20 21 21 22 22 21 21 21 21 22 21 21 21 21 21 21 20 19 20 18 17 17 17 17 17 17 16 15 14 14 13 13 13 13 13 13 13 13 13 13
5 6 6 7 7 7 8 8 7 7 8 7 7 8 8 8 9 10 11 12 13 14 14 13 13 14 14 15 16 17 17 16 17 17 17 17 18 18 19 20 20 20 19 19 19 20 20 19 20 21 20 21 22 22 22 22 22 23 22 21 21 21 21 21 20 19 18 19 18 17 18 18 16 16 16 15 14 14 14 13 13 13 13 13 13 13 13 13
5 6 6 7 7 7 7 7 7 7 7 7 8 8 9 9 9 9 11 12 13 14 14 14 14 13 14 15 16 17 17 16 16 17 18 18 18 19 19 20 21 20 20 19 19 20 20 20 20 20 20 21 22 22 22 22 23 23 23 22 22 22 21 21 21 19 19 19 17 17 20 18 15 15 16 15 14 14 13 13 13 13 13 13 13 13 13 13
5 5 7 7 7 7 7 7 7 7 7 8 9 9 9 9 9 10 11 12 13 14 14 14 14 14 14 15 15 16 17 17 17 17 18 18 18 19 20 20 21 20 20 20 19 19 20 20 19 20 21 21 22 22 21 22 22 23 23 22 21 23 23 22 21 20 20 19 18 18 20 17 14 14 15 14 13 13 13 13 13 13 13 13 13 13 12 12
5 5 7 7 8 8 7 7 7 7 7 8 8 9 9 10 10 10 11 12 13 14 13 13 14 14 14 15 15 16 17 17 17 17 18 18 19 20 20 20 20 20 20 20 20 20 20 19 19 19 20 20 21 22 21 21 22 22 22 21 21 23 23 22 21 20 20 19 19 20 20 16 14 14 13 13 13 13 13 13 13 13 13 12 12 12 12 12
5 6 7 7 8 8 7 7 7 7 7 8 8 8 9 10 11 12 12 12 13 14 13 13 14 14 14 15 15 15 16 17 17 18 18 19 20 21 20 20 20 20 21 21 21 21 20 19 19 19 19 19 19 20 20 20 21 21 22 22 22 22 23 22 21 21 21 18 18 20 18 14 13 13 13 12 12 12 13 13 13 13 12 12 12 12 12 12
6 6 6 7 7 7 7 7 7 7 7 7 8 9 9 10 11 12 13 13 13 13 13 14 14 14 14 15 15 15 16 17 17 18 18 19 20 21 20 20 20 20 21 21 21 21 20 19 20 20 20 20 20 21 20 20 21 21 21 22 22 22 23 23 21 21 20 19 19 17 15 14 13 13 12 12 12 13 13 13 13 12 12 12 12 12 12 11
6 7 7 7 7 7 7 7 7 7 8 8 8 9 10 9 10 12 13 14 13 13 13 13 14 14 15 15 15 15 16 16 17 17 17 18 20 20 21 20 20 20 21 21 21 21 21 20 19 20 20 19 19 19 19 20 21 21 21 22 21 21 21 22 22 21 20 20 19 15 13 14 14 13 13 12 12 13 13 13 13 12 12 12 12 12 11 11
7 7 7 8 8 8 8 8 8 7 8 8 8 9 10 9 10 11 12 13 14 13 13 14 14 14 14 15 15 15 15 16 17 16 16 17 19 20 21 20 20 20 21 21 21 21 22 20 19 19 19 18 17 17 17 19 18 17 19 20 20 20 21 22 22 20 20 22 20 15 13 14 14 13 13 13 13 13 13 13 13 12 12 11 11 11 11 10
7 7 7 8 8 8 8 9 9 8 8 8 8 9 10 10 11 11 12 13 13 13 13 13 14 14 14 14 15 15 15 16 16 16 16 17 17 19 20 20 20 20 20 20 20 20 22 20 18 19 19 18 17 16 16 17 17 15 16 17 18 19 20 20 19 17 18 20 18 14 13 14 14 14 13 13 13 13 13 13 12 12 11 11 10 10 10 10
7 7 8 7 7 8 8 8 9 9 9 9 9 10 10 11 11 11 11 12 12 13 13 13 14 14 13 14 15 15 16 16 16 16 16 16 17 17 19 20 20 20 20 20 20 20 21 20 18 19 19 17 17 16 15 17 17 16 15 14 16 18 18 18 17 16 17 16 14 13 14 14 14 14 13 13 13 13 13 12 12 12 11 11 10 10 10 10
7 8 8 7 8 8 8 9 9 9 10 10 10 10 11 11 11 10 11 12 12 13 13 13 13 13 13 14 15 16 16 15 16 16 16 16 16 17 18 18 18 19 20 20 20 20 21 19 17 19 20 17 16 15 15 16 18 17 16 14 14 17 17 17 16 16 17 15 13 13 14 13 13 14 13 13 13 13 12 12 12 12 11 11 10 10 10 10
7 7 8 7 8 8 8 9 9 9 10 10 10 11 11 11 11 10 11 12 13 13 14 14 13 13 13 14 16 17 16 16 16 16 16 16 16 16 16 15 16 18 20 20 20 20 20 19 17 18 19 18 16 16 15 17 20 19 16 13 12 13 15 15 14 14 15 14 13 14 15 14 13 13 13 13 13 13 12 12 12 11 11 11 10 10 10 10
Height
808 807 807 806 805 805 804 804 804 803 803 802 801 801 800 800 799 798 798 797 796 795 794 793 792 790 789 788 786 784 781 778 774 775 771 759 758 762 762 763 764 764 765 765 766 767 768 769 770 770 772 773 775 775 775 775 776 780 789 796 798 797 790 781 778 776 775 773 768 763 762 767 767 763 758 759 766 768 772 775 773 771 771 775 778 780 784 786
806 806 805 805 804 804 803 803 802 802 801 801 801 800 799 799 798 798 797 796 795 794 793 792 791 790 788 787 785 783 781 777 775 771 759 754 758 760 760 762 763 764 764 764 765 766 768 770 770 770 772 774 776 775 776 775 775 781 788 795 794 789 781 773 772 770 770 770 767 763 762 765 765 761 758 765 776 772 776 782 778 778 780 780 781 784 787 787
804 804 804 803 803 803 802 801 801 801 800 800 799 799 799 798 798 797 796 795 794 793 792 791 790 789 788 786 785 783 780 777 773 762 750 753 757 756 758 760 761 763 763 764 764 766 767 769 769 770 773 775 776 775 777 775 775 779 784 792 787 779 775 769 768 766 766 766 766 764 760 763 763 758 758 767 778 776 777 780 780 783 783 783 784 785 787 789
803 802 802 802 802 801 801 800 800 799 799 799 798 798 798 797 797 796 795 794 793 792 792 791 790 789 787 786 785 782 781 777 765 751 748 752 752 753 757 757 760 762 762 763 764 766 767 768 768 769 773 777 777 776 778 775 775 777 780 785 778 774 773 766 764 763 762 764 765 765 763 765 761 758 761 764 777 785 778 770 770 777 779 781 784 785 787 789
801 801 800 800 800 800 800 799 799 798 798 797 797 797 796 796 796 795 794 793 793 792 791 790 789 788 787 785 784 782 782 774 755 746 748 749 748 751 753 755 759 760 761 763 764 766 766 768 769 771 774 777 778 778 778 773 773 777 777 776 772 772 772 762 760 761 760 761 764 765 765 763 759 763 764 761 771 780 775 767 763 767 771 776 780 783 786 788
800 799 799 798 798 798 798 798 797 797 796 796 796 795 795 795 794 794 793 792 792 791 790 789 788 787 786 784 783 782 779 764 748 747 748 747 747 748 750 754 757 759 761 763 763 765 766 768 770 773 776 777 779 779 777 773 771 778 776 771 770 770 769 762 758 759 759 760 763 763 760 759 762 768 766 762 766 767 767 768 765 767 770 774 778 782 786 788
799 798 797 796 796 796 796 796 796 795 795 795 794 794 794 794 793 793 792 792 791 790 790 789 788 787 785 784 781 781 780 761 746 748 747 746 746 745 749 752 755 759 760 761 762 764 766 768 771 773 776 778 779 777 775 773 772 777 777 770 768 767 766 762 759 759 759 761 762 758 756 759 765 768 766 766 767 763 766 769 769 771 774 777 780 783 786 788
797 796 795 795 794 794 794 794 793 794 794 793 793 793 793 793 792 792 791 791 790 790 789 788 787 786 785 783 781 781 778 759 745 747 747 746 745 744 747 750 754 757 758 760 760 763 765 768 770 772 776 777 776 776 774 774 774 776 775 770 766 765 761 758 759 759 759 761 760 757 760 763 764 764 768 772 769 766 768 770 772 775 777 780 782 785 787 789
796 795 794 793 792 792 792 791 792 792 792 792 792 792 792 791 791 791 791 790 789 789 788 787 787 786 785 783 783 779 766 750 746 748 747 747 745 744 746 748 753 755 757 759 759 763 764 767 769 769 774 775 774 775 772 776 777 772 771 769 766 764 760 757 758 757 758 761 760 762 767 767 762 764 776 781 773 770 770 772 776 778 781 783 785 788 789 791
794 793 792 792 791 790 789 790 790 790 790 790 790 791 790 790 790 790 789 789 789 788 787 788 786 785 785 782 783 774 754 747 749 748 748 748 747 746 747 749 752 754 756 758 759 761 762 764 766 765 771 772 772 773 772 775 774 768 768 768 766 765 761 757 757 755 758 760 759 765 772 769 761 767 785 788 780 774 773 777 779 781 784 786 788 790 791 793
792 791 791 790 789 788 788 788 788 788 789 788 789 789 789 789 789 789 789 788 788 787 787 786 785 785 783 783 783 767 749 747 748 747 749 749 748 748 748 750 751 753 756 758 758 759 760 763 763 765 771 771 771 773 771 770 769 767 768 768 766 765 764 759 756 755 757 760 758 762 769 769 766 771 782 784 784 781 777 780 782 784 788 789 791 793 794 795
790 790 789 788 788 787 786 786 786 787 786 787 788 788 788 788 788 788 787 787 787 787 786 785 786 784 783 784 777 757 746 748 747 747 748 748 749 749 749 751 751 752 755 756 757 758 761 763 763 767 769 769 772 774 770 767 767 767 767 771 768 766 766 760 756 754 757 763 758 758 770 779 781 783 784 784 790 788 783 785 787 789 790 791 794 795 796 796
788 788 787 786 786 785 784 783 784 785 784 785 786 786 787 786 787 787 786 786 786 785 785 785 785 783 785 779 761 748 747 748 747 746 747 748 749 749 750 751 752 753 754 755 756 757 761 763 764 767 767 770 773 771 767 765 767 768 768 771 772 773 770 760 756 754 757 763 756 757 779 793 794 793 788 787 792 792 789 788 790 792 793 794 796 796 798 798
786 786 785 784 784 783 782 782 782 782 782 783 784 785 785 785 786 785 785 785 784 785 784 784 784 783 785 770 749 747 750 748 748 746 746 748 748 749 750 751 752 753 754 755 756 758 761 763 765 767 767 769 770 768 769 770 770 770 771 774 778 782 775 761 758 756 759 762 754 758 783 798 798 795 787 785 792 793 791 790 791 795 795 796 797 798 800 800
784 784 783 782 782 781 780 780 779 780 781 781 782 783 783 784 784 783 784 783 783 784 782 783 783 783 784 767 748 747 748 748 747 744 745 747 748 748 749 750 751 753 754 756 757 759 760 762 766 770 769 767 768 772 777 776 773 774 778 783 785 784 776 764 759 756 757 760 754 760 787 801 798 794 786 784 791 795 794 792 793 796 796 797 798 799 800 801
782 782 781 781 780 779 778 778 778 778 779 780 781 782 782 782 782 783 782 782 783 783 783 783 780 783 781 762 747 746 745 745 743 742 744 745 746 747 748 749 750 752 755 756 758 759 760 762 765 768 768 769 772 777 782 784 782 780 783 786 785 782 779 771 762 756 755 758 757 764 786 799 797 797 792 785 789 795 796 795 795 797 797 797 799 800 801 803
780 780 779 779 778 777 776 776 776 776 777 778 779 780 780 780 781 781 780 781 781 780 782 780 780 784 772 751 745 745 742 741 740 742 742 743 745 746 747 749 750 752 754 756 758 759 760 762 765 767 768 771 773 778 787 793 791 787 786 786 784 783 781 777 769 763 760 760 764 770 781 789 791 797 796 788 786 792 795 795 796 797 798 799 800 801 802 803
778 778 777 776 776 775 774 774 774 774 776 777 778 779 779 779 779 779 779 779 780 781 782 780 782 780 759 744 745 743 739 740 740 741 741 741 743 745 747 748 749 752 756 759 759 759 762 762 765 770 772 774 775 779 788 792 789 788 788 786 785 783 781 778 771 768 766 767 772 775 781 789 791 793 795 791 788 792 795 793 794 797 799 801 801 802 804 804
776 776 775 774 774 773 772 772 772 772 774 775 777 777 777 777 777 777 777 778 779 778 775 774 774 763 746 742 744 741 739 740 739 739 739 740 742 744 747 748 749 752 758 763 761 760 761 765 769 773 776 775 775 778 781 782 781 782 783 782 783 782 781 777 772 769 768 776 784 782 786 794 794 795 799 798 793 794 797 794 795 799 800 801 802 804 805 806
774 773 773 772 771 771 770 770 770 771 773 774 775 776 777 777 777 776 776 776 773 767 763 763 762 753 745 744 743 742 740 738 738 739 738 739 741 744 747 748 750 753 758 763 763 760 760 769 773 772 773 773 772 773 774 776 777 778 781 782 783 782 780 775 774 773 767 779 796 792 791 796 795 800 802 801 800 798 798 799 799 800 802 803 804 805 806 808
772 771 770 770 769 769 768 768 769 769 771 773 773 776 776 774 774 774 773 771 766 762 760 759 759 754 747 745 745 746 744 741 738 737 738 739 740 745 748 749 753 757 759 759 760 759 762 771 773 768 769 768 769 770 772 776 777 779 782 783 785 785 781 774 775 776 767 780 801 797 795 799 798 803 804 803 806 804 801 803 803 802 804 806 807 808 808 809
769 769 768 767 767 766 766 766 767 768 770 771 772 774 774 771 771 772 771 769 762 759 759 756 757 755 747 746 748 749 751 747 739 736 737 738 740 745 747 749 755 758 759 758 760 764 768 772 768 766 767 765 766 770 772 775 777 781 783 785 788 785 780 778 778 779 774 785 803 800 798 805 806 808 808 807 809 810 808 806 806 805 805 807 809 810 810 811
767 766 765 765 764 764 764 764 765 767 768 770 771 772 771 769 770 769 769 769 761 754 754 753 753 752 748 747 748 750 752 748 742 736 734 737 740 743 746 750 755 756 758 760 763 770 774 769 763 764 766 765 768 772 774 775 778 782 783 787 790 784 781 785 788 787 782 786 797 800 803 809 810 811 810 810 810 812 812 811 810 809 806 808 810 811 811 812
764 764 763 762 762 763 763 763 764 766 767 769 770 769 769 769 769 769 770 770 763 752 747 746 747 746 745 744 745 748 749 745 741 736 733 736 739 741 745 748 753 756 758 760 763 768 768 760 758 762 765 765 767 772 775 776 781 783 782 784 787 784 780 786 792 791 789 792 793 797 809 813 812 815 815 813 813 814 815 815 813 812 810 811 812 812 814 814
762 762 761 760 760 761 761 762 763 764 766 769 768 767 768 768 768 770 771 770 762 750 742 741 742 740 737 741 744 744 746 742 736 734 732 734 737 740 744 744 749 757 759 760 764 767 763 755 755 761 766 766 767 772 773 775 781 784 781 779 781 780 780 789 794 793 804 811 798 796 814 820 816 818 819 818 819 817 816 816 815 814 814 814 816 816 816 817
761 760 759 759 758 760 761 762 764 765 767 768 767 767 768 767 767 768 771 771 758 744 740 739 737 732 730 738 741 741 746 739 729 731 732 733 733 736 744 745 745 753 757 758 762 763 759 754 754 759 764 767 768 771 771 771 781 785 777 773 776 776 781 792 794 796 812 814 797 792 808 820 820 818 817 818 821 818 815 816 815 814 816 816 818 818 818 819
760 759 758 757 757 759 760 762 765 765 766 766 766 766 766 766 767 767 768 764 747 733 735 738 732 726 726 731 734 740 743 733 726 730 730 732 732 732 742 747 746 750 750 754 763 759 753 754 757 758 762 767 770 771 769 768 779 783 773 770 774 775 780 790 790 794 803 802 797 795 799 812 821 815 811 815 820 819 815 815 815 815 816 817 818 820 820 819
759 758 757 757 757 758 759 762 764 764 764 765 764 765 765 765 766 768 765 752 734 725 728 731 728 723 724 728 731 733 730 724 727 730 726 729 732 732 742 746 746 749 744 751 765 757 747 753 758 758 763 767 767 766 764 765 773 775 767 767 770 770 775 782 787 791 795 800 807 805 798 811 821 811 809 817 819 818 816 813 814 816 816 818 820 821 821 820
759 758 757 758 758 758 760 762 762 763 763 763 763 763 763 763 764 768 765 744 726 721 721 723 724 724 726 730 731 728 724 723 725 725 725 730 731 733 741 743 743 747 744 749 759 753 746 748 751 755 761 763 759 759 760 763 769 767 762 762 764 769 774 779 786 790 796 804 809 806 799 809 822 815 811 818 815 812 814 813 814 816 816 818 820 821 822 822
760 759 759 758 758 759 761 762 762 762 762 761 762 761 760 763 764 766 760 738 723 720 718 720 723 724 728 732 733 730 728 726 722 722 727 730 731 733 737 738 740 745 747 749 752 749 745 743 745 749 753 753 752 756 758 760 762 762 763 765 768 773 775 780 786 789 802 810 802 799 798 802 816 816 808 809 803 799 809 815 814 816 818 819 821 822 823 824
761 760 760 759 760 760 761 761 761 761 761 761 760 759 760 761 763 761 745 726 722 721 720 723 723 723 727 729 730 731 731 728 723 724 729 732 735 737 737 740 743 747 752 753 752 750 746 747 747 743 743 746 751 756 759 759 760 762 765 769 776 782 781 786 791 793 806 809 794 792 797 798 805 808 802 799 797 794 802 812 815 817 820 821 822 824 824 825
761 761 760 760 760 761 761 760 760 760 760 759 758 757 758 761 764 759 737 723 727 725 720 722 722 723 726 725 725 729 730 729 725 724 728 733 739 740 738 740 744 751 761 761 757 755 752 749 746 741 739 743 751 761 764 763 764 767 769 774 785 794 794 797 801 803 804 799 791 791 794 798 803 806 804 799 797 797 801 808 814 818 821 823 824 825 827 828
761 761 760 760 760 760 760 760 760 760 758 758 757 753 756 761 759 750 738 730 729 723 717 718 719 721 725 724 725 727 728 728 725 724 726 731 739 740 737 737 737 745 757 760 760 762 760 754 746 744 743 739 746 760 767 769 770 771 773 778 788 798 803 808 810 810 802 792 793 792 790 799 805 807 809 802 798 800 804 810 815 818 822 824 826 827 829 831
761 761 760 760 759 759 759 760 759 760 759 757 755 752 758 762 751 739 738 734 727 721 718 717 717 721 723 722 723 725 728 729 725 724 726 731 739 741 738 738 736 737 746 755 759 762 767 763 750 745 745 738 741 751 755 760 767 769 766 770 781 786 791 800 800 797 795 794 798 796 796 804 805 805 809 803 800 803 807 813 817 820 824 825 827 829 831 833
761 760 760 759 759 758 758 759 759 759 760 756 753 754 759 759 749 740 738 733 727 725 723 717 717 723 725 723 721 722 724 727 725 724 728 732 736 738 737 738 737 735 742 755 759 756 762 760 743 737 738 734 739 743 742 752 764 767 763 765 775 773 772 787 792 788 790 794 801 805 809 812 809 808 809 804 803 808 811 816 819 822 826 827 830 832 833 835
761 760 759 758 758 758 757 758 759 758 759 757 754 757 757 754 749 743 737 732 730 731 729 721 717 724 728 725 724 722 720 722 724 726 729 732 733 734 734 734 734 733 736 747 754 753 759 756 738 735 737 731 734 737 737 746 758 765 766 766 767 760 761 780 793 797 794 791 803 815 817 817 814 812 811 808 808 812 815 817 820 824 826 829 832 833 835 836
760 759 759 758 757 758 758 758 758 758 760 759 756 755 755 752 748 743 737 733 731 730 730 726 720 722 727 727 725 724 722 722 724 727 731 732 731 730 731 730 729 730 730 736 745 747 752 751 738 735 740 733 729 733 735 736 743 758 764 760 758 761 766 771 783 798 797 793 809 820 817 815 815 813 814 814 814 815 817 818 821 825 827 829 832 833 835 836
761 760 759 758 758 758 758 758 758 759 761 759 756 753 753 753 747 741 738 735 731 727 727 727 721 718 723 727 725 724 723 725 727 728 730 732 729 725 727 729 727 727 727 730 738 740 744 749 740 732 736 732 727 736 744 739 736 743 747 746 752 766 774 772 778 790 794 804 818 818 814 815 811 811 813 813 814 815 816 819 822 825 827 829 832 833 834 835
761 760 760 760 759 758 759 759 759 761 761 759 760 758 756 755 747 740 739 737 732 728 727 727 723 720 721 723 723 723 724 727 729 729 728 730 729 723 721 724 725 727 726 727 735 737 740 749 745 733 729 730 731 740 750 748 740 738 741 744 749 757 763 766 774 777 782 806 819 811 813 813 802 803 807 806 809 812 814 819 822 824 827 829 831 833 834 835
761 762 763 761 760 760 760 759 760 762 761 761 764 762 760 757 749 741 739 737 733 729 728 728 725 724 722 720 720 721 723 726 726 726 727 727 727 724 720 719 723 726 726 727 733 735 740 749 749 738 732 735 738 738 741 745 743 743 749 753 752 754 757 761 771 774 777 798 812 811 813 806 793 794 798 800 805 808 811 816 820 824 827 828 829 831 833 835
762 764 765 762 761 761 760 761 762 763 763 764 765 763 761 758 752 744 738 734 731 726 725 726 726 725 724 722 720 718 721 725 724 724 725 725 725 725 719 715 718 723 727 732 734 734 740 747 748 743 739 740 735 728 729 733 735 738 743 750 751 751 756 764 774 780 779 785 796 801 800 795 793 791 792 798 804 807 812 815 819 824 825 827 829 830 833 835
764 766 765 762 762 762 762 764 765 765 767 766 762 760 759 756 751 745 736 730 727 723 722 724 725 726 725 722 719 718 719 723 724 723 723 722 722 720 715 712 713 717 724 731 733 732 735 742 746 744 741 738 730 724 726 726 727 731 734 741 746 745 749 759 768 775 778 780 789 792 786 789 797 793 790 799 806 808 813 816 819 823 824 826 829 830 833 836
768 767 765 763 763 763 765 767 766 767 767 763 759 757 756 754 750 744 736 731 727 723 724 724 723 724 723 721 720 719 718 720 723 722 720 720 718 714 711 710 712 716 720 727 731 730 732 741 747 744 739 734 727 724 726 726 727 732 734 737 742 740 740 747 754 762 770 777 785 787 785 792 799 795 795 803 808 811 815 816 818 822 824 826 828 830 833 836
770 768 765 765 764 764 767 768 767 767 765 761 759 757 754 751 747 743 738 732 727 725 726 725 723 723 723 720 720 719 717 719 721 718 717 719 714 708 708 709 711 715 718 722 725 727 735 744 748 750 749 745 739 735 734 733 731 732 734 737 738 736 738 745 752 757 765 775 776 772 782 798 800 798 801 805 809 813 815 815 817 819 823 826 828 831 834 836
769 769 767 766 765 766 769 768 768 768 766 763 762 758 753 748 740 736 735 731 726 725 726 725 722 723 724 721 720 719 715 716 719 716 715 716 710 705 706 709 712 713 714 716 717 722 734 742 745 751 757 758 754 748 743 741 737 735 735 735 737 738 738 742 751 756 763 775 774 770 785 804 804 802 805 807 809 813 814 815 816 818 822 825 828 831 833 836
768 769 769 768 766 767 768 766 766 768 766 765 762 754 750 747 739 731 729 728 726 725 726 725 723 722 722 720 720 719 716 714 715 714 714 714 709 704 703 707 711 712 712 714 715 719 731 739 739 741 746 747 743 738 737 738 736 737 736 734 736 738 734 737 747 754 758 768 776 780 791 801 803 803 805 806 808 810 812 814 816 820 823 825 828 830 833 836
767 767 768 768 766 767 767 765 765 766 763 763 760 752 748 748 743 734 728 726 727 727 726 725 724 723 722 721 721 720 718 716 714 714 715 713 708 704 702 705 709 710 710 712 714 718 728 736 737 737 740 742 739 737 737 734 733 737 736 734 737 740 738 738 742 748 754 761 775 789 794 794 798 799 799 802 804 806 809 812 815 820 823 825 828 830 833 837
765 765 765 764 764 765 763 760 762 763 761 761 760 754 751 750 746 739 733 728 727 727 727 725 724 724 723 723 722 721 720 717 716 717 718 714 710 706 704 706 707 706 709 713 713 715 722 732 738 738 741 744 745 746 742 737 742 747 743 740 742 743 740 737 738 747 749 747 760 783 791 787 789 792 792 795 798 800 805 810 814 819 822 825 829 831 835 838
765 765 764 762 763 763 760 757 758 759 759 759 758 754 752 749 744 739 735 732 730 729 730 729 725 724 726 723 722 722 721 719 720 720 718 716 714 711 709 709 708 705 708 713 714 714 719 729 736 736 740 745 746 749 748 742 747 755 755 752 749 746 744 743 749 757 754 749 760 778 787 784 783 786 791 795 798 801 805 810 814 818 822 826 829 832 835 837
765 765 764 764 763 762 760 757 756 756 755 755 754 750 747 744 741 740 738 735 734 731 730 731 727 725 727 725 722 721 720 719 720 720 718 717 717 714 711 709 708 707 709 712 715 715 718 730 736 733 741 749 748 752 753 745 744 754 762 763 756 749 749 753 759 762 761 766 775 780 786 789 787 787 793 796 799 802 806 810 814 817 821 825 829 832 835 837
765 764 763 765 763 760 759 756 755 755 753 752 751 747 745 743 742 744 740 734 733 731 728 729 729 727 727 724 722 720 718 718 718 717 716 716 715 714 711 711 710 709 710 712 714 714 717 732 739 733 740 751 752 754 758 749 743 749 758 765 763 755 753 757 761 761 760 770 782 785 785 788 786 787 793 796 798 801 804 808 812 816 819 823 827 831 833 835
765 763 762 764 763 760 759 757 756 755 752 749 748 746 745 744 743 745 742 733 729 729 727 727 730 731 730 726 721 717 715 715 715 713 713 713 712 711 712 715 713 708 708 710 713 717 719 728 738 738 742 752 753 755 758 749 740 746 757 768 772 766 761 761 763 764 763 768 777 778 774 774 778 784 790 795 797 798 800 803 807 813 818 823 826 829 831 834
Wind_Speed
13 13 12 12 12 11 11 12 11 11 12 11 11 12 13 13 13 14 14 15 15 15 15 16 16 16 17 17 18 20 23 23 22 18 12 22 24 19 12 7 8 10 9 8 7 4 1 1 3 5 5 3 2 1 2 3 2 2 3 2 3 3 4 4 5 5 3 4 8 7 8 2 5 6 5 9 10 11 13 7 6 11 11 11 16 24 26 25
13 13 14 13 13 12 11 11 11 11 11 12 12 12 13 13 14 14 15 15 16 15 15 16 15 15 16 17 18 20 23 24 21 18 26 30 21 19 20 15 10 10 9 9 11 9 4 2 1 4 4 1 1 1 1 2 2 3 3 2 4 5 5 4 5 4 3 4 8 8 7 3 7 8 5 7 8 11 14 7 8 13 12 13 17 22 22 24
14 14 14 14 14 13 12 12 11 11 11 12 12 12 13 14 15 15 15 16 15 15 15 15 16 15 16 17 18 20 22 19 11 15 29 27 22 22 19 19 17 13 11 10 9 10 7 3 3 5 3 1 1 1 1 2 2 3 3 2 5 6 5 5 6 7 5 4 6 8 6 2 5 2 3 10 10 10 13 10 10 12 13 13 12 16 20 21
16 15 14 14 14 14 13 12 12 12 12 12 12 13 13 14 15 15 15 15 15 15 14 14 15 15 16 16 17 19 17 10 4 11 19 18 20 23 20 21 20 15 13 8 5 8 8 3 3 4 4 0 3 1 1 3 2 2 3 5 6 4 5 6 6 7 6 3 4 5 4 1 3 1 7 16 13 5 8 12 15 17 17 15 12 14 17 16
17 17 15 15 15 15 14 13 13 12 12 12 13 13 13 14 14 15 14 14 14 13 14 13 14 15 15 17 17 17 8 2 4 4 5 10 15 20 23 23 20 17 13 9 5 7 7 3 4 4 3 0 2 1 3 4 2 1 3 6 6 3 5 7 5 5 4 3 3 0 1 4 2 4 7 13 12 7 8 10 17 21 20 19 16 15 15 13
18 17 17 17 15 15 15 14 14 13 13 13 13 13 13 14 14 14 14 13 13 13 13 13 14 14 16 18 16 9 2 1 5 3 3 6 9 19 24 24 21 18 14 11 7 8 6 4 4 2 2 1 2 2 4 4 2 2 4 4 5 6 6 8 6 3 2 3 3 2 3 4 9 6 2 3 6 11 12 10 14 17 18 19 17 14 13 11
18 17 17 18 16 16 16 15 14 13 14 13 13 14 13 14 14 14 13 13 13 12 13 12 13 14 16 18 9 3 1 7 9 3 8 12 7 16 24 26 24 19 17 13 8 7 5 5 4 3 4 1 3 4 5 3 1 2 4 5 6 7 7 9 9 6 4 4 6 3 1 6 11 8 2 5 8 15 17 13 12 15 16 17 14 12 11 10
17 17 18 18 18 17 17 16 15 14 14 14 14 13 13 14 14 13 13 13 12 12 12 12 12 13 16 14 4 1 1 13 17 8 11 14 10 12 24 26 25 20 19 16 10 8 5 6 5 4 4 2 3 3 4 3 2 3 5 6 5 6 8 9 8 8 6 5 3 3 7 6 8 8 7 8 13 16 17 15 13 13 13 12 10 10 9 10
17 17 18 18 18 18 18 17 15 14 14 14 14 13 14 13 13 14 13 13 12 12 12 12 12 12 14 9 1 2 6 18 21 15 14 14 10 10 23 25 25 21 18 15 11 10 6 6 6 4 4 3 3 2 3 1 2 5 6 5 5 6 9 8 7 9 5 1 3 10 10 9 9 10 8 4 8 15 16 15 13 13 12 10 9 8 8 9
18 17 18 18 18 19 19 17 15 15 14 14 14 14 14 13 13 14 13 12 12 12 11 11 11 11 11 5 2 4 7 10 12 13 13 11 8 9 21 24 25 21 15 10 11 11 7 6 6 5 4 2 3 3 2 3 2 4 4 5 7 8 9 7 8 8 2 0 5 11 10 9 4 5 5 5 3 10 16 15 13 12 11 10 9 7 7 8
19 18 18 18 18 19 18 18 17 15 15 15 14 14 14 13 13 13 13 12 11 11 11 10 10 10 10 4 2 6 4 2 4 0 4 6 6 10 20 22 23 21 14 8 12 15 9 6 4 4 2 2 2 2 3 3 2 3 3 5 8 6 7 7 9 8 2 0 6 15 10 4 3 3 11 7 4 6 15 16 12 12 10 10 10 7 6 7
19 19 19 18 18 18 18 18 18 16 15 15 14 14 14 14 14 13 13 11 11 11 10 10 9 9 8 4 8 15 8 4 4 4 4 4 6 10 14 18 21 22 17 9 11 17 12 6 3 2 2 1 0 1 2 3 3 4 3 3 7 4 3 9 9 7 3 1 6 14 7 7 5 4 8 6 5 6 11 14 12 11 10 10 9 7 6 8
19 19 20 18 18 18 18 18 18 17 16 15 14 14 14 14 13 12 12 11 10 10 10 9 8 8 5 3 13 22 16 8 6 10 7 5 6 9 10 14 19 22 21 16 14 16 14 9 4 2 2 2 1 2 2 4 3 5 2 2 4 6 4 8 6 5 2 3 7 9 4 5 5 5 6 6 7 9 10 13 12 11 10 9 9 7 7 8
19 19 20 19 18 18 18 18 18 18 16 15 14 14 15 15 13 12 12 11 11 10 9 8 9 8 3 7 13 17 18 16 19 19 11 7 6 7 9 11 15 19 21 21 17 12 13 12 5 1 2 1 2 4 5 5 3 3 2 0 0 2 4 8 5 4 2 3 4 8 3 4 2 2 8 9 8 10 12 14 13 10 9 9 8 9 8 7
20 19 20 20 19 18 18 18 18 17 17 15 14 14 15 15 14 12 11 11 10 9 9 10 10 6 3 11 14 11 13 13 19 22 16 13 9 6 8 10 14 18 19 20 14 7 11 13 4 1 3 2 1 3 4 4 3 2 0 3 2 3 5 7 5 5 5 1 4 8 3 2 2 4 9 13 10 9 12 13 13 11 11 11 9 9 9 8
20 20 20 20 19 19 18 17 16 17 17 15 13 14 16 17 16 13 11 10 9 8 9 8 7 6 2 7 6 4 6 9 17 21 18 17 14 9 8 8 11 14 15 15 10 6 11 11 3 3 2 1 2 2 3 4 4 3 1 2 2 3 3 3 4 5 1 2 6 6 5 3 3 3 5 13 15 12 12 12 13 13 11 11 9 8 9 9
20 20 20 20 19 19 18 17 16 16 17 14 12 14 16 17 15 13 12 10 9 9 9 6 3 4 5 7 4 3 6 11 16 15 14 16 17 13 6 3 5 9 9 8 6 5 7 6 2 2 2 1 3 4 3 1 4 3 1 2 3 3 3 1 3 5 6 6 5 5 4 5 7 9 9 12 17 14 15 15 14 12 11 10 9 9 8 9
20 21 20 19 20 19 18 18 16 15 15 12 11 14 16 16 14 13 13 9 5 4 6 8 4 2 6 10 4 3 4 6 8 8 9 13 14 14 9 2 3 7 4 1 3 4 3 1 3 2 1 3 3 5 4 5 4 3 2 1 2 2 3 3 4 2 4 6 4 4 4 4 10 13 8 9 14 13 13 15 14 12 12 11 10 9 9 9
19 20 20 19 19 19 18 17 16 15 14 11 11 14 14 12 10 9 9 5 2 2 2 5 6 3 4 7 2 5 10 7 6 6 7 10 10 10 9 4 2 7 5 2 3 5 3 2 3 4 4 5 6 6 7 6 6 7 5 3 3 2 2 4 3 1 7 8 4 3 6 8 9 8 4 3 6 11 12 12 13 12 11 10 9 8 8 9
19 19 19 18 18 17 17 16 15 15 13 11 10 8 6 3 3 3 3 4 6 7 3 3 8 5 4 1 5 12 10 4 3 4 7 10 10 8 5 3 3 4 5 4 4 4 5 4 4 7 7 7 7 8 8 7 6 6 4 3 1 1 3 2 1 1 7 8 5 2 7 10 8 7 6 2 0 8 12 9 9 10 8 8 8 8 9 9
17 18 17 17 17 16 16 15 13 14 13 12 8 1 1 2 2 1 1 5 11 14 11 7 11 11 9 7 8 14 7 3 4 3 6 8 12 9 3 3 4 3 4 6 4 2 4 6 7 7 8 8 7 7 7 6 5 5 5 3 3 1 4 2 2 1 3 7 2 1 9 9 7 6 5 5 3 4 8 8 6 9 9 7 8 9 9 9
16 17 16 16 16 15 15 14 13 13 13 12 8 4 3 4 2 3 3 3 8 14 16 13 12 13 16 18 12 8 4 4 6 6 5 6 9 7 3 4 5 4 3 5 4 3 4 6 7 7 6 7 6 6 7 6 5 5 3 4 1 3 3 3 4 3 4 6 3 4 9 7 6 6 3 5 5 2 1 4 4 7 10 8 8 8 9 9
16 16 15 15 15 13 13 12 12 13 13 11 8 7 6 6 4 7 6 2 5 8 12 12 11 10 12 14 11 5 3 4 4 6 5 8 6 6 5 5 6 4 3 5 5 6 5 6 7 7 6 7 5 5 7 5 4 4 4 5 2 4 1 2 4 5 6 4 8 7 6 4 5 6 5 5 6 2 4 6 4 4 8 9 7 7 8 9
15 14 14 14 13 12 11 10 11 11 13 11 10 13 11 8 9 9 5 1 5 4 9 12 9 7 9 8 6 8 5 4 4 4 5 9 5 4 5 5 6 5 4 5 6 6 4 6 7 8 7 8 7 5 7 6 3 2 4 5 3 2 2 3 2 4 8 6 8 10 5 1 3 4 3 4 6 6 5 6 6 6 8 9 8 8 7 7
13 13 13 12 11 11 9 9 7 6 8 10 11 13 12 12 13 7 1 0 4 3 6 9 6 6 10 7 7 8 3 4 6 5 3 7 7 4 3 3 5 5 5 6 6 5 5 5 8 9 6 7 7 6 7 7 4 2 3 6 7 5 5 6 6 5 6 2 4 6 3 1 2 2 2 2 3 6 6 5 7 9 8 8 8 8 7 7
11 11 11 10 10 10 9 6 3 5 6 7 6 5 6 9 8 5 4 2 2 2 3 6 5 8 11 9 8 6 1 4 8 10 7 6 8 5 3 2 2 5 6 6 4 3 5 4 8 10 7 7 7 5 5 8 6 2 5 8 9 7 7 9 8 5 4 3 6 4 2 2 0 3 5 4 4 5 6 6 7 8 8 8 8 7 7 8
9 10 10 9 10 10 10 5 0 5 5 3 3 6 8 7 2 7 3 3 2 2 4 3 3 9 11 10 11 7 2 3 4 8 9 9 6 5 5 3 3 4 4 5 3 3 7 7 6 8 8 7 6 4 5 8 8 3 6 9 10 8 9 9 8 6 3 2 4 4 0 3 3 5 6 5 5 4 4 6 7 6 8 9 8 7 7 8
8 9 8 7 8 12 11 4 1 2 3 4 6 10 11 6 3 6 2 2 1 2 4 3 4 8 7 10 14 8 4 4 5 6 9 12 8 4 5 6 5 5 4 6 5 3 6 10 8 8 8 6 5 5 8 10 6 6 6 8 9 9 9 9 7 5 4 4 3 5 1 3 3 3 5 4 5 5 5 7 9 7 8 10 9 8 8 9
6 6 6 3 6 11 9 3 3 4 6 7 10 14 11 2 3 2 0 1 1 1 3 3 5 5 5 9 12 8 4 0 3 6 8 10 9 3 4 6 6 6 5 5 5 4 3 9 9 8 6 6 6 5 9 11 5 6 6 5 3 4 4 5 6 4 4 4 6 9 6 3 1 2 5 4 6 8 6 6 8 8 9 10 9 9 9 9
5 3 0 3 5 6 3 5 5 5 8 10 13 13 5 3 4 1 1 1 0 1 1 3 4 5 9 9 8 8 4 3 2 5 7 4 7 4 2 5 4 5 3 3 6 5 3 4 6 6 5 5 6 5 7 10 7 4 4 1 2 1 4 3 2 4 4 3 6 11 10 5 2 4 7 5 4 10 9 5 7 9 10 10 9 9 8 8
5 4 2 4 5 3 1 2 3 6 9 12 14 8 2 3 0 2 2 2 1 0 1 3 3 7 13 11 7 6 4 3 3 6 7 4 6 6 4 5 3 4 4 3 5 6 3 3 4 4 5 5 5 4 5 7 6 4 3 3 2 3 3 3 3 3 4 5 5 10 10 5 4 5 7 5 1 9 12 8 9 10 10 9 8 8 7 7
5 3 3 2 1 1 3 3 7 9 10 14 13 2 4 2 1 1 2 3 2 0 1 4 4 7 11 10 8 7 4 1 2 6 9 6 7 7 6 7 4 5 6 4 4 5 4 3 3 3 6 7 6 3 3 4 5 5 3 5 4 2 0 1 1 0 4 5 5 9 12 5 5 4 4 5 4 7 9 7 9 11 10 9 8 7 6 6
4 4 5 4 4 5 6 7 9 8 10 14 8 1 4 3 2 2 2 2 1 1 2 3 5 8 11 8 7 7 4 2 3 5 7 8 8 7 5 6 6 6 4 4 5 5 3 5 5 4 4 6 9 6 4 4 4 7 5 5 5 3 2 3 3 1 3 4 4 4 12 5 3 2 5 4 6 7 8 9 8 10 10 8 8 8 7 6
5 6 6 5 6 7 6 6 5 5 11 12 3 4 4 2 3 1 1 2 1 3 5 1 6 8 10 7 5 7 4 2 3 5 6 8 8 7 6 5 5 6 4 4 5 5 6 5 6 7 4 5 10 8 7 6 5 6 5 6 5 5 5 3 4 3 3 3 4 1 6 3 1 1 5 1 8 9 10 10 9 9 9 8 8 8 7 6
6 6 7 7 6 4 3 1 1 4 8 6 3 4 2 2 2 1 0 3 2 4 8 2 5 7 6 3 2 6 5 2 3 4 5 7 7 7 6 5 5 5 5 5 3 3 7 7 5 6 6 7 10 8 7 8 5 4 3 5 5 6 5 1 3 6 4 3 1 1 2 1 1 2 3 6 11 12 11 11 11 10 9 8 7 7 6 5
8 6 5 7 5 2 3 3 1 5 7 3 3 3 2 1 2 1 2 5 5 6 8 3 5 5 5 3 2 6 4 1 4 3 3 6 6 6 6 4 5 5 6 6 3 2 6 5 5 4 7 8 10 9 9 8 5 3 3 5 5 5 7 3 1 2 3 3 1 0 2 2 2 2 5 10 13 14 13 11 11 11 10 10 7 6 6 4
9 7 3 7 6 3 5 4 1 6 6 2 2 2 0 2 3 4 5 7 8 7 4 1 3 3 5 4 2 5 3 1 2 2 2 4 4 6 7 4 5 7 5 5 2 2 5 3 5 5 8 10 7 7 8 9 8 6 5 7 4 3 4 2 2 2 3 2 1 0 3 4 2 1 5 10 12 14 14 11 11 11 11 10 7 7 6 5
9 4 2 9 5 5 5 4 1 5 3 2 1 1 2 2 4 6 8 9 10 7 2 1 1 2 5 5 2 4 3 1 1 2 3 3 3 5 8 5 4 8 7 4 2 2 3 1 6 5 9 9 5 5 4 6 4 4 7 7 5 4 2 1 3 2 2 1 2 0 3 4 3 4 8 11 13 15 15 12 12 12 11 10 8 7 7 6
7 2 2 8 3 7 4 4 2 3 2 2 2 2 2 3 7 9 10 10 9 6 2 0 1 2 4 5 3 3 4 3 3 2 2 3 3 5 9 6 4 8 9 6 3 2 2 2 4 4 6 6 4 4 5 6 2 3 5 6 3 3 4 3 3 3 4 3 1 2 3 3 3 7 12 14 15 17 16 14 13 11 10 9 9 8 7 6
4 2 2 5 3 7 4 4 2 3 2 2 2 2 3 4 7 10 11 10 7 4 2 1 2 2 2 3 3 3 3 4 5 2 2 5 4 4 7 8 6 7 9 7 5 2 1 3 2 4 2 4 4 5 7 8 5 4 5 5 2 2 3 2 1 2 4 4 3 2 2 4 3 7 14 16 15 15 15 14 12 10 10 10 10 8 7 7
3 2 1 3 4 8 4 2 1 2 1 1 1 2 3 4 7 11 13 12 7 4 3 2 1 1 1 1 2 3 3 4 4 3 1 4 5 2 5 8 8 8 7 6 6 3 1 3 2 2 1 3 5 5 7 10 8 7 6 6 5 4 4 4 2 1 3 4 5 4 3 5 3 3 10 12 12 13 13 13 12 11 12 11 9 8 8 8
2 1 1 2 5 8 2 2 1 1 1 1 1 2 4 5 7 9 12 11 7 3 1 0 1 2 1 1 2 2 4 4 4 4 2 4 5 3 5 7 9 9 8 5 4 4 3 3 2 3 3 5 8 4 6 10 8 6 5 5 5 4 5 6 4 3 2 3 3 3 2 4 5 1 7 9 10 11 12 12 12 11 11 10 9 9 10 9
2 0 1 3 3 5 2 3 1 1 1 3 3 4 5 6 7 9 9 8 5 1 1 1 1 0 1 1 1 1 2 3 5 6 3 3 5 6 8 9 9 9 8 5 4 3 3 3 1 3 4 4 6 3 2 4 4 4 2 3 5 5 5 6 5 4 3 3 3 3 0 4 3 2 8 10 11 11 10 12 13 11 9 9 11 11 10 10
1 1 1 3 2 2 1 1 1 1 2 3 4 5 6 7 9 10 7 6 4 0 1 1 1 2 1 1 1 2 2 2 4 7 5 3 5 8 9 10 9 8 6 5 5 4 4 2 2 1 1 3 3 1 2 0 2 3 3 3 4 5 7 4 3 4 2 3 5 4 3 3 1 5 9 11 13 12 11 11 13 12 10 9 10 10 10 10
1 1 1 3 3 2 1 1 1 1 3 4 5 6 7 6 7 9 7 5 3 1 1 2 3 2 2 2 1 2 3 2 3 5 5 4 4 5 7 9 8 6 5 5 7 6 4 3 3 4 4 3 4 5 4 4 2 1 2 4 4 6 9 5 3 4 2 3 4 4 3 2 3 8 12 12 13 14 12 12 11 11 11 11 10 10 10 10
0 1 1 3 2 1 1 2 0 1 3 3 4 5 4 3 4 6 6 2 1 2 0 2 3 2 1 1 2 2 2 1 2 3 4 5 4 3 6 10 9 7 7 8 10 7 3 2 4 6 6 6 7 7 6 5 4 2 4 6 5 6 8 7 5 4 4 4 3 3 5 8 8 11 14 14 14 15 14 13 11 10 11 11 10 11 10 9
1 1 1 0 1 0 2 2 2 3 3 2 3 3 4 5 6 5 4 2 2 3 1 2 1 1 2 3 3 2 3 3 3 2 2 4 4 3 3 8 9 9 10 9 8 6 4 3 5 6 5 5 4 5 4 5 5 4 6 7 5 5 6 8 5 5 6 5 2 4 9 13 12 14 16 17 16 15 14 13 12 12 12 11 11 11 11 10
0 0 2 1 0 1 1 2 3 5 6 4 2 2 3 6 5 3 4 3 2 2 2 2 2 2 4 3 2 2 4 4 4 1 0 2 2 2 2 3 7 11 11 7 6 5 5 4 5 5 1 3 3 4 3 5 5 2 4 3 3 4 7 9 7 6 8 6 5 10 15 14 14 16 17 17 16 16 15 13 13 13 12 12 11 12 12 11
0 0 2 1 1 2 3 3 3 4 6 5 2 2 3 4 5 3 3 3 4 3 2 2 4 5 7 4 2 2 2 2 1 3 2 1 1 1 2 2 4 8 10 7 5 4 4 3 5 6 3 4 6 6 4 6 7 4 5 3 1 3 5 5 3 2 6 4 5 14 15 8 9 13 13 12 12 12 13 12 13 14 13 13 12 12 12 11
0 0 1 1 2 3 3 4 3 3 4 3 3 4 2 2 3 4 3 2 2 3 1 1 5 8 7 4 2 1 1 4 3 4 2 1 1 1 3 3 2 5 8 7 4 3 3 3 2 5 4 4 5 6 3 6 10 6 4 6 5 5 5 5 4 4 6 6 7 14 10 2 3 8 10 11 12 13 14 14 14 14 14 14 13 12 12 11
2 3 2 0 2 2 2 3 2 1 2 1 3 3 2 2 3 4 5 3 4 3 3 2 6 7 5 4 3 3 5 5 5 6 4 3 2 1 1 1 3 6 7 6 4 3 4 2 1 5 5 2 3 4 3 4 10 8 4 5 5 3 4 3 3 3 5 8 11 11 8 5 6 10 12 13 14 16 17 16 14 13 13 14 14 13 12 11
4 4 2 1 2 2 2 3 2 0 1 2 2 2 2 4 4 3 4 4 3 5 4 1 4 5 5 6 5 5 6 6 6 6 4 3 2 4 2 1 1 5 7 5 3 2 5 5 1 3 4 2 2 2 4 3 6 3 2 3 2 1 2 3 2 2 5 11 11 7 6 8 12 15 16 16 17 18 17 16 15 14 13 13 13 13 12 11
Wind_Direction
289 290 292 294 296 297 298 303 306 306 307 308 310 308 306 307 306 308 309 308 308 309 310 313 313 315 316 318 323 323 322 317 309 308 267 244 240 230 237 230 198 196 211 237 227 210 183 142 178 164 138 125 156 186 185 169 148 103 113 190 225 207 211 195 190 202 194 284 302 330 345 338 125 108 105 79 76 90 81 62 66 56 66 94 105 124 134 135
283 285 287 288 290 292 293 297 301 302 303 305 307 305 305 306 306 308 307 308 308 306 307 312 314 315 316 319 322 321 321 315 310 294 254 245 245 237 234 228 211 203 213 226 220 199 146 128 169 125 113 105 224 201 187 198 164 157 139 172 225 216 217 205 209 245 256 287 306 314 323 273 160 137 142 113 103 99 88 75 86 86 86 96 113 126 133 137
281 281 282 284 284 287 289 291 294 296 298 302 303 305 307 305 305 307 307 308 307 306 305 309 313 314 317 319 319 320 319 316 311 270 258 252 245 238 227 218 216 217 223 226 224 198 157 113 128 110 79 34 261 196 198 248 196 183 161 210 242 224 244 248 236 258 257 268 303 309 335 288 200 145 133 123 115 114 118 128 118 118 127 128 134 135 140 141
287 280 277 279 280 282 285 286 288 291 293 296 300 303 305 305 306 306 307 308 307 308 305 308 314 314 316 317 317 318 317 315 284 254 264 258 240 234 221 211 209 214 219 212 216 190 166 100 91 101 88 40 305 20 202 248 217 202 165 204 239 216 258 261 235 255 256 240 272 306 7 260 242 53 136 128 117 122 154 158 144 144 148 146 150 146 149 146
297 286 278 274 275 277 279 281 282 284 287 291 296 299 303 305 307 306 309 309 308 311 308 309 313 315 317 316 317 316 315 308 281 264 261 253 237 225 214 206 202 208 205 190 185 162 159 110 75 70 83 150 326 55 237 244 172 215 218 207 227 220 261 271 251 255 263 268 284 287 151 206 147 114 158 137 136 162 172 171 150 149 153 150 153 152 152 144
300 294 285 275 270 272 273 274 277 279 282 286 290 295 301 303 304 307 307 307 309 312 311 311 311 318 318 316 320 307 228 228 300 19 7 306 253 216 204 200 200 203 197 190 183 151 143 102 89 105 110 139 195 182 245 259 157 212 269 241 237 234 247 277 279 265 266 306 311 235 214 154 123 141 204 94 130 142 144 159 145 142 144 143 147 148 149 142
300 299 294 283 273 269 269 268 270 273 277 280 286 291 297 300 303 305 305 307 309 311 312 313 313 318 319 322 320 245 184 274 274 325 333 336 305 213 197 197 196 197 193 186 168 147 137 118 135 157 128 153 195 207 248 271 212 179 265 278 265 251 243 261 271 272 257 258 272 266 97 115 136 156 119 77 109 125 134 146 137 131 130 135 142 142 141 132
300 299 297 292 283 272 269 269 266 267 272 276 281 288 293 297 301 301 304 307 306 311 312 311 316 320 320 324 317 211 270 249 249 282 312 330 331 203 190 192 191 191 188 190 178 151 140 140 167 159 138 216 179 209 254 287 313 206 239 267 270 264 255 262 271 276 267 245 258 65 74 92 119 113 92 106 122 126 134 137 129 126 126 131 134 128 122 120
297 297 295 294 290 279 269 266 265 263 266 272 277 284 290 294 299 299 302 303 303 307 309 311 315 319 317 316 307 270 250 240 249 276 295 322 333 192 185 186 185 186 183 196 187 155 162 169 188 179 158 207 182 232 247 223 275 212 220 256 272 276 271 280 280 270 279 251 108 81 85 102 104 87 55 26 121 125 124 123 126 126 125 122 115 113 113 118
294 294 293 291 291 286 273 265 265 263 261 268 274 280 286 291 295 298 300 300 303 304 305 310 311 317 318 316 172 233 254 247 254 272 281 307 322 177 179 183 181 183 179 186 178 166 177 171 182 169 144 201 204 238 187 157 230 215 222 260 259 271 279 286 278 272 329 305 141 109 114 126 113 88 90 295 277 125 121 121 125 122 116 113 108 108 110 115
294 290 291 290 289 289 281 267 262 260 258 262 270 277 283 289 293 296 298 298 301 302 303 305 310 317 311 317 186 218 246 204 167 287 308 305 285 179 176 186 186 185 178 170 189 194 181 149 151 125 132 226 234 270 216 199 268 266 287 301 275 276 280 274 275 274 59 340 161 127 118 76 15 119 138 180 233 130 124 121 117 113 111 112 111 107 107 114
294 290 287 288 286 285 284 273 263 259 256 256 265 275 280 286 291 294 293 294 296 296 301 303 310 314 302 296 234 224 215 171 142 29 355 322 272 206 187 193 195 195 190 181 207 211 190 151 110 111 204 205 277 275 238 265 315 301 323 320 297 344 299 260 263 262 99 94 180 127 84 1 8 83 107 113 139 134 118 115 111 111 116 115 113 111 111 116
292 290 286 285 284 282 282 278 267 259 255 253 260 272 278 284 290 293 292 292 293 291 298 302 301 309 309 271 241 230 225 228 278 307 302 304 273 229 218 208 204 205 203 206 218 217 197 178 151 176 241 92 194 252 319 325 338 311 321 162 296 11 322 264 257 266 98 152 190 123 80 303 340 46 89 90 133 150 125 119 119 117 123 120 118 119 114 116
291 290 286 283 282 280 280 278 270 259 254 253 257 269 276 281 286 289 291 289 291 291 292 295 291 298 279 253 261 250 247 263 281 281 273 280 264 230 234 225 217 213 213 218 224 225 202 189 169 200 294 150 226 307 348 346 10 317 301 113 356 98 273 284 285 264 170 170 157 103 111 238 319 106 139 120 135 156 134 124 126 127 130 123 121 121 116 114
289 288 286 282 280 280 278 278 274 260 253 253 255 266 272 277 283 286 288 285 287 287 285 290 275 268 280 269 275 273 258 266 271 258 250 261 252 227 228 224 227 221 221 224 224 226 187 175 156 168 269 256 159 3 354 343 357 7 319 320 340 158 257 300 295 235 180 182 50 86 117 216 161 175 152 128 137 155 136 126 128 131 129 123 119 117 117 112
286 285 284 281 279 279 276 274 272 259 250 249 252 261 268 275 279 279 283 282 282 277 279 290 257 215 251 281 279 279 242 236 247 244 246 251 237 224 219 211 223 219 222 227 220 196 165 157 152 170 207 275 149 104 27 5 338 354 107 236 248 165 232 308 291 276 150 60 15 62 136 180 146 198 185 139 141 152 141 131 129 129 127 122 120 119 121 118
284 283 281 280 278 276 275 270 266 259 251 245 251 261 271 279 280 279 282 280 277 270 261 269 251 202 248 276 290 272 233 222 234 242 244 239 228 221 201 163 200 197 211 227 210 186 160 155 174 166 150 179 156 115 75 298 274 313 28 217 236 173 174 237 272 305 23 58 21 42 124 158 148 171 195 156 144 150 147 136 131 131 127 126 126 126 127 122
281 282 279 279 278 273 273 269 263 260 251 243 250 263 274 282 282 279 278 270 268 269 257 261 259 181 256 266 255 256 284 254 245 256 237 221 221 217 199 169 161 154 159 205 176 171 174 164 144 149 168 169 161 125 157 212 193 189 185 165 241 171 145 182 223 267 40 63 68 76 89 108 143 160 175 159 146 147 146 134 131 132 130 134 131 127 126 117
278 279 277 278 276 272 271 268 264 257 245 236 248 265 279 287 283 273 260 241 169 142 216 225 201 163 275 255 226 327 319 304 278 272 226 202 205 206 198 205 131 130 137 141 179 174 157 98 126 176 199 186 185 167 183 195 155 166 176 146 170 164 195 214 236 205 103 82 46 104 119 123 142 145 132 165 151 142 143 133 132 135 134 131 121 117 112 106
277 276 276 276 273 271 269 267 264 250 232 224 242 274 295 288 276 267 215 206 215 229 256 202 206 241 321 288 22 355 329 321 318 256 207 190 170 158 180 191 111 135 155 151 181 183 144 157 194 198 195 190 189 183 185 177 142 141 123 86 115 145 253 247 50 197 120 90 352 348 117 131 141 136 137 158 36 142 145 136 129 126 125 117 108 106 100 102
277 275 276 274 271 270 268 267 255 236 221 216 218 209 270 187 133 358 224 221 231 238 257 252 230 256 279 279 354 6 346 325 333 267 220 192 157 147 186 168 131 177 187 152 152 139 145 185 212 202 185 182 189 187 176 159 132 119 106 65 11 345 254 279 82 240 105 89 3 35 113 123 115 112 133 119 104 174 156 141 132 116 113 104 103 106 102 108
275 276 274 272 272 269 266 262 243 225 210 208 201 166 246 232 149 3 333 250 242 230 240 250 242 256 269 271 295 340 331 287 301 289 232 179 158 166 189 142 145 187 189 156 140 140 179 215 217 200 174 172 193 185 167 169 145 117 113 113 8 285 259 316 10 5 34 93 141 133 113 104 70 69 73 98 113 292 338 110 119 116 114 108 107 109 110 110
274 274 272 271 271 265 261 252 230 216 204 202 196 192 244 242 227 333 348 285 269 223 220 237 234 239 257 270 273 260 261 239 254 280 204 155 157 175 159 137 153 169 170 174 168 157 189 235 211 185 158 164 206 191 157 169 149 120 135 137 203 260 162 359 346 14 31 91 141 130 97 85 80 79 66 84 111 59 25 74 74 83 103 106 107 101 105 106
274 272 272 270 263 256 252 234 216 206 201 208 217 221 241 248 256 313 358 270 278 244 214 216 212 223 236 251 228 189 215 225 208 256 199 155 151 155 158 151 149 170 189 171 162 163 222 245 183 156 155 170 200 199 160 163 185 170 169 154 166 200 129 137 143 67 52 67 126 119 83 67 92 80 83 96 126 125 98 91 87 88 94 98 100 92 92 100
276 274 274 268 257 248 225 198 203 197 191 215 238 246 259 271 274 280 69 300 279 267 223 202 196 224 215 200 180 172 200 244 216 239 229 161 158 139 168 181 149 181 185 149 147 171 247 250 157 148 165 177 190 200 174 165 178 250 213 177 162 146 120 126 128 92 69 68 178 133 113 237 32 34 178 170 170 142 130 126 110 108 106 103 104 101 101 98
287 282 273 265 253 227 184 160 231 220 200 221 249 293 308 303 287 214 160 17 291 246 177 165 178 198 184 166 168 158 129 262 218 216 231 209 181 149 163 199 137 178 169 144 150 178 224 221 157 163 169 177 195 206 190 159 139 247 234 181 161 142 136 141 130 109 111 182 217 204 166 168 219 255 216 206 201 159 140 134 120 118 117 109 108 108 113 107
303 287 274 268 243 195 153 112 177 195 195 236 302 334 332 324 255 184 155 18 284 213 145 158 178 171 171 166 159 146 192 236 182 194 215 221 199 147 166 190 135 172 156 144 191 207 190 186 166 168 166 178 203 204 188 150 130 232 236 168 156 155 163 168 148 139 155 163 209 237 79 128 197 222 193 183 184 166 150 138 128 131 123 112 114 114 117 113
315 290 279 267 213 163 136 107 93 188 247 316 334 332 333 333 199 182 134 60 228 165 127 193 194 162 158 155 155 170 231 189 149 180 194 199 194 139 176 196 152 175 183 162 201 253 185 184 178 165 167 190 197 174 162 145 144 230 212 153 157 176 181 177 165 159 146 125 192 237 191 134 204 181 143 169 188 182 187 157 140 139 129 119 119 119 112 103
335 300 281 245 169 147 145 210 288 300 305 324 332 329 335 356 162 173 200 155 172 136 108 151 181 165 131 139 167 205 260 105 170 169 160 186 201 177 187 189 149 175 203 162 180 248 209 182 175 163 174 197 190 168 154 151 177 222 185 134 141 171 155 154 169 157 125 151 203 207 183 136 220 196 149 178 205 187 188 165 147 143 135 127 121 119 110 99
16 9 237 133 116 121 158 248 277 311 318 325 326 324 332 147 145 80 224 226 143 187 122 139 178 160 142 145 179 211 227 312 295 143 131 159 194 207 181 160 140 165 193 136 169 231 267 159 167 172 178 184 186 178 157 164 178 169 152 158 286 295 64 79 141 115 127 214 218 191 181 151 183 226 186 192 212 173 165 158 153 146 138 133 121 120 116 105
30 43 75 103 100 76 37 234 285 319 315 320 325 319 165 153 65 101 169 260 320 48 99 156 169 143 150 158 174 192 202 292 322 147 151 142 169 193 170 160 165 153 172 173 186 235 271 171 178 172 157 153 168 183 164 172 174 145 129 145 222 301 30 37 2 74 156 246 243 183 170 164 202 229 206 199 144 155 163 161 155 147 138 133 120 118 114 104
19 28 19 26 66 319 281 274 310 316 312 324 330 323 131 77 355 170 253 312 354 343 198 174 160 149 162 170 169 170 166 228 270 162 158 147 169 192 181 179 175 153 188 192 171 216 238 236 244 172 168 163 158 173 173 172 165 156 146 132 151 261 312 190 270 184 202 247 257 178 160 186 236 238 237 206 144 145 150 137 144 143 133 129 119 113 107 106
347 346 344 332 313 295 285 302 310 303 321 334 332 132 87 75 194 227 288 325 42 310 275 171 149 155 166 172 170 170 162 188 216 169 155 147 165 197 208 196 159 138 179 167 148 190 226 293 275 195 195 177 163 165 174 185 167 161 168 154 161 175 149 203 230 292 239 242 299 182 164 195 259 289 293 230 153 129 115 112 127 130 124 123 115 112 110 112
335 332 329 311 309 309 305 323 314 300 329 340 10 101 69 108 222 254 241 272 275 296 303 191 148 155 169 177 164 159 164 238 214 159 154 152 163 195 210 204 171 126 117 150 162 179 188 248 238 194 209 180 173 181 166 157 160 168 165 144 160 174 149 183 204 186 214 215 330 336 167 197 239 305 311 211 124 107 111 119 120 116 116 117 114 117 118 116
345 330 318 310 324 331 330 4 324 326 335 345 73 92 114 176 263 329 348 309 314 314 319 321 134 143 174 192 147 160 167 218 196 145 150 166 171 190 188 190 193 147 122 164 192 175 185 235 248 199 202 174 172 186 153 134 160 187 147 135 180 192 149 109 193 174 170 153 39 318 154 52 93 70 36 112 115 112 124 130 128 125 122 122 121 122 122 121
354 345 321 317 337 36 75 113 164 343 351 19 93 130 193 239 296 323 340 337 333 320 326 353 113 125 172 184 153 185 181 151 170 147 147 166 166 185 185 177 183 161 138 159 196 175 173 249 281 195 204 198 178 180 170 159 175 172 149 180 208 168 130 115 210 151 108 130 152 175 124 104 112 77 98 121 121 128 139 138 133 131 127 129 129 127 128 129
358 356 340 342 359 90 97 115 165 342 356 54 118 160 254 314 285 299 322 328 317 302 320 81 126 128 167 180 172 186 184 90 149 138 159 176 179 188 188 184 172 172 170 153 181 199 156 238 269 175 197 225 188 168 190 180 156 143 178 198 187 127 110 120 158 47 49 141 231 319 164 175 181 171 136 131 132 144 149 141 135 135 137 136 132 137 141 139
350 346 353 359 17 131 115 123 170 342 358 57 28 2 21 330 289 309 318 318 313 306 342 86 183 109 146 175 191 171 162 176 176 134 164 191 229 198 180 184 178 180 187 143 125 230 143 214 271 190 184 214 168 134 219 218 161 145 179 176 146 159 203 126 153 172 131 163 292 216 183 201 203 180 159 153 155 156 151 144 142 144 146 140 135 143 144 135
352 359 4 2 65 143 122 143 160 12 37 58 8 341 2 315 293 307 311 311 312 316 341 154 322 46 145 175 185 156 140 170 186 158 152 173 236 218 181 176 181 182 183 154 146 228 123 122 272 237 182 182 145 143 207 220 202 91 144 165 141 149 176 167 160 163 146 154 241 168 182 220 210 178 171 169 165 159 153 150 149 147 145 143 143 146 140 128
10 69 354 354 136 154 140 147 125 36 70 57 359 331 352 320 294 299 300 300 304 303 280 261 3 41 147 178 175 159 133 155 180 171 158 176 203 236 197 177 171 174 173 168 178 210 73 134 238 281 218 157 179 205 191 182 171 128 140 174 167 95 129 157 134 106 124 143 166 161 207 239 215 178 178 173 165 160 155 150 146 144 145 146 144 140 132 123
11 81 338 341 163 169 150 113 42 27 81 6 330 304 326 305 289 293 294 296 293 260 232 226 219 117 129 143 168 169 139 147 182 185 176 185 182 224 217 183 160 155 155 169 195 199 146 156 191 283 232 182 232 234 180 174 170 153 162 182 174 140 122 137 208 243 105 131 163 161 199 250 270 197 180 169 159 157 152 144 141 143 147 147 141 134 129 125
15 104 317 4 164 173 126 40 348 37 51 321 295 289 299 288 280 285 293 304 303 259 228 207 212 200 184 179 173 170 151 155 189 192 177 193 185 200 220 187 159 157 154 161 196 195 150 127 153 252 231 212 244 254 172 177 163 139 170 181 156 140 129 141 191 223 116 110 139 116 136 261 291 213 152 147 144 145 145 141 140 144 147 143 136 130 128 127
34 302 338 29 158 176 61 33 339 9 250 259 280 284 280 273 274 283 294 305 310 332 28 323 253 184 223 224 90 122 158 157 186 193 183 190 210 224 211 181 162 158 153 161 185 182 164 126 124 268 294 284 272 314 75 148 134 127 206 170 147 159 149 148 171 171 149 151 131 94 177 260 290 101 122 128 132 136 142 145 142 143 144 138 134 132 130 127
19 278 346 42 119 149 53 55 322 330 282 294 300 279 268 261 262 270 280 290 288 54 75 293 304 30 335 252 167 198 203 156 185 195 183 175 226 233 206 182 175 166 162 182 179 172 201 183 96 116 344 345 298 322 39 213 190 186 194 158 149 136 116 120 132 112 134 197 149 140 219 250 191 120 122 128 135 139 149 151 146 144 142 138 134 132 131 129
326 216 336 9 66 85 17 270 349 336 319 316 295 271 265 257 252 254 255 269 283 228 134 270 278 281 268 250 234 246 218 170 187 192 175 178 233 240 199 186 185 178 180 179 156 153 186 183 128 144 164 167 192 210 208 197 221 252 147 140 142 130 128 136 126 116 181 222 143 144 197 190 133 135 135 140 146 148 154 155 150 146 141 139 137 135 137 136
352 120 350 348 32 79 242 245 229 283 291 300 284 272 273 288 292 283 270 260 9 15 138 255 282 278 273 40 34 313 276 205 186 164 166 193 222 238 185 181 184 186 181 164 150 138 132 168 160 153 171 189 196 218 214 161 159 194 160 153 158 153 140 120 112 157 183 169 159 186 159 142 152 158 153 156 157 154 158 157 149 142 137 136 139 139 138 137
72 120 160 171 341 295 263 262 233 234 256 280 298 299 311 314 310 312 318 354 35 7 291 244 295 323 340 23 41 340 323 6 36 95 166 214 238 273 197 176 183 191 180 166 163 139 109 192 189 145 180 226 215 236 232 135 142 175 162 160 159 150 140 134 157 192 153 135 216 208 155 153 171 177 168 166 164 159 160 156 146 143 143 142 142 139 134 134
113 222 195 174 207 213 239 253 220 225 244 250 285 300 299 304 306 315 322 329 5 24 30 338 318 331 340 359 65 357 348 16 16 6 263 268 270 278 248 187 191 191 177 169 183 153 121 196 201 132 146 305 354 309 288 104 105 99 104 122 141 157 170 167 183 189 151 153 206 182 169 173 179 180 175 169 165 159 154 149 144 144 145 144 142 138 136 138
186 302 277 291 264 218 236 253 227 227 238 228 239 264 241 272 300 313 315 337 345 340 41 352 303 323 341 346 94 49 11 61 359 305 292 316 316 197 176 218 227 195 176 168 187 170 135 194 191 130 84 359 1 325 296 120 106 60 39 24 58 154 163 149 142 148 130 128 162 163 169 182 177 175 170 157 152 146 141 142 145 148 150 148 144 141 141 142
153 67 299 319 281 246 250 271 255 236 246 225 232 261 257 270 313 328 312 303 310 312 69 169 289 313 327 331 68 81 222 167 190 262 255 117 9 349 172 196 218 181 174 174 187 197 170 190 182 110 80 345 350 350 327 132 117 95 48 11 27 88 98 97 109 105 86 75 121 142 144 130 150 152 145 143 146 143 144 150 152 153 154 150 144 143 144 143
280 271 259 258 296 294 284 291 291 235 278 256 222 260 305 297 315 343 314 249 208 232 222 235 307 323 326 337 356 266 237 195 201 242 239 178 148 134 171 212 176 166 176 176 167 165 145 132 25 87 92 300 332 21 346 99 99 92 59 11 7 67 108 126 153 156 138 128 125 130 145 173 163 147 143 150 153 151 153 156 155 157 157 152 148 148 146 144
319 292 267 208 288 325 327 304 329 22 261 240 226 262 285 278 300 351 325 289 238 227 223 250 341 336 329 332 315 248 224 209 226 250 241 201 110 90 82 348 113 149 168 162 121 119 141 138 142 105 114 237 267 354 329 31 87 82 337 344 309 286 123 124 71 40 126 136 139 155 185 172 154 149 152 158 163 163 163 161 157 157 155 151 149 148 145 144